DW0148 Weather Reports


time (UTC)temp
C
wind
direction
speed
KPH
gust
KPH
rain 1hr
cm
rain 24hr
cm
rain mn
cm
humidity
%
barometer
mb
20260904003754 26 138 0.0 0.0 0.00 0.00 0.00 90 1013.2
20260904003253 26 138 0.0 0.0 0.00 0.00 0.00 89 1013.2
20260904002751 26 138 0.0 0.0 0.00 0.00 0.00 89 1012.9
20260904002249 27 139 0.0 0.0 0.00 0.00 0.00 89 1012.9
20260904001748 27 138 0.0 0.0 0.00 0.00 0.00 89 1012.9
20260904001216 27 139 0.0 0.0 0.00 0.00 0.00 88 1012.9
20260904000715 27 138 0.0 0.0 0.00 0.00 0.00 88 1012.9
20260904000214 27 138 0.0 0.0 0.00 0.00 0.00 88 1012.9
20260903235711 27 138 0.0 0.0 0.00 0.00 0.00 87 1012.9
20260903235209 28 138 0.0 0.0 0.00 0.00 0.00 87 1012.5
20260903234637 28 138 0.0 0.0 0.00 0.00 0.00 86 1012.5
20260903234136 28 138 0.0 0.0 0.00 0.00 0.00 86 1012.5
20260903233635 28 138 0.0 0.0 0.00 0.00 0.00 85 1012.5
20260903233134 28 138 0.0 0.0 0.00 0.00 0.00 85 1012.5
20260903232633 29 138 0.0 0.0 0.00 0.00 0.00 84 1012.5
20260903232131 29 138 0.0 0.0 0.00 0.00 0.00 83 1012.5
20260903231629 29 139 0.0 0.0 0.00 0.00 0.00 82 1012.5
20260903231128 30 138 0.0 0.0 0.00 0.00 0.00 80 1012.5
20260903230627 30 138 0.0 0.0 0.00 0.00 0.00 79 1012.5
20260903230125 30 139 0.0 0.0 0.00 0.00 0.00 77 1012.5
20260903225623 30 138 0.0 0.0 0.00 0.00 0.00 76 1012.5
20260903225120 30 138 0.0 0.0 0.00 0.00 0.00 75 1012.5
20260903224620 31 138 0.0 0.0 0.00 0.00 0.00 73 1012.5
20260903224119 31 139 0.0 0.0 0.00 0.00 0.00 73 1012.5
20260903223547 31 138 0.0 0.0 0.00 0.00 0.00 72 1012.5
20260903223046 32 138 0.0 0.0 0.00 0.00 0.00 71 1012.5
20260903222545 32 139 0.0 0.0 0.00 0.00 0.00 70 1012.5
20260903222043 32 138 0.0 0.0 0.00 0.00 0.00 71 1012.5
20260903221542 32 347 0.0 0.0 0.00 0.00 0.00 69 1012.5
20260903221042 33 347 0.0 0.0 0.00 0.00 0.00 68 1012.5
20260903220540 33 348 0.0 0.0 0.00 0.00 0.00 65 1012.5
20260903220039 33 347 0.0 0.0 0.00 0.00 0.00 63 1012.5
20260903215538 34 347 0.0 0.0 0.00 0.00 0.00 65 1012.5
20260903215037 34 347 0.0 0.0 0.00 0.00 0.00 58 1012.5
20260903214537 35 347 0.0 0.0 0.00 0.00 0.00 58 1012.5
20260903214005 35 347 0.0 0.0 0.00 0.00 0.00 58 1012.5
20260903213503 35 347 0.0 0.0 0.00 0.00 0.00 56 1012.5
20260903212931 35 347 0.0 0.0 0.00 0.00 0.00 54 1012.5
20260903212429 35 347 0.0 0.0 0.00 0.00 0.00 53 1012.5
20260903211928 35 315 0.0 0.0 0.00 0.00 0.00 52 1012.5
20260903211427 34 335 0.0 0.0 0.00 0.00 0.00 54 1012.5
20260903210926 35 322 0.0 0.0 0.00 0.00 0.00 57 1012.5
20260903210353 35 322 0.0 0.0 0.00 0.00 0.00 51 1012.9
20260903205851 35 323 0.0 0.0 0.00 0.00 0.00 55 1012.9
20260903205349 35 37 0.0 0.0 0.00 0.00 0.00 51 1012.9
20260903204817 36 360 0.0 0.0 0.00 0.00 0.00 52 1012.9
20260903204316 36 100 0.0 0.0 0.00 0.00 0.00 51 1012.9
20260903203815 36 254 0.0 0.0 0.00 0.00 0.00 49 1012.9
20260903203314 36 240 0.0 0.0 0.00 0.00 0.00 50 1012.9
20260903202813 36 259 0.0 0.0 0.00 0.00 0.00 52 1012.9
20260903202312 36 219 0.0 0.0 0.00 0.00 0.00 50 1012.9
20260903201811 35 192 0.0 0.0 0.00 0.00 0.00 52 1013.2
20260903201310 35 252 0.0 0.0 0.00 0.00 0.00 51 1013.2
20260903200809 35 267 0.0 0.0 0.00 0.00 0.00 56 1013.2
20260903200308 35 177 0.0 0.0 0.00 0.00 0.00 56 1013.2
20260903195807 35 238 0.0 0.0 0.00 0.00 0.00 50 1013.2
20260903195306 35 219 0.0 0.0 0.00 0.00 0.00 53 1013.5
20260903194805 35 195 0.0 0.0 0.00 0.00 0.00 53 1013.5
20260903194304 35 196 0.0 0.0 0.00 0.00 0.00 54 1013.5
20260903193732 35 151 0.0 0.0 0.00 0.00 0.00 58 1013.5
20260903193200 35 155 0.0 0.0 0.00 0.00 0.00 55 1013.5
20260903192626 35 184 0.0 0.0 0.00 0.00 0.00 57 1013.9
20260903192124 35 149 0.0 0.0 0.00 0.00 0.00 57 1013.9
20260903191623 35 172 0.0 0.0 0.00 0.00 0.00 57 1013.9
20260903191122 35 158 0.0 0.0 0.00 0.00 0.00 56 1013.9
20260903190621 35 149 0.0 0.0 0.00 0.00 0.00 59 1014.2
20260903190120 35 154 0.0 0.0 0.00 0.00 0.00 57 1014.2
20260903185619 35 169 0.0 0.0 0.00 0.00 0.00 62 1014.2
20260903185117 35 155 0.0 0.0 0.00 0.00 0.00 63 1014.2
20260903184616 35 155 0.0 0.0 0.00 0.00 0.00 63 1014.2
20260903184115 35 158 0.0 0.0 0.00 0.00 0.00 58 1014.2
20260903183542 35 153 0.0 0.0 0.00 0.00 0.00 59 1014.2
20260903183040 35 184 0.0 0.0 0.00 0.00 0.00 60 1014.6
20260903182539 35 183 0.0 0.0 0.00 0.00 0.00 62 1014.6
20260903182037 35 160 0.0 0.0 0.00 0.00 0.00 63 1014.6
20260903181536 35 177 0.0 0.0 0.00 0.00 0.00 63 1014.6
20260903181002 35 150 0.0 0.0 0.00 0.00 0.00 61 1014.6
20260903180501 35 169 0.0 0.0 0.00 0.00 0.00 62 1014.9
20260903180000 35 149 0.0 0.0 0.00 0.00 0.00 63 1014.9
20260903175459 35 169 0.0 0.0 0.00 0.00 0.00 61 1014.9
20260903174957 35 183 0.0 0.0 0.00 0.00 0.00 61 1014.9
20260903174456 35 183 0.0 0.0 0.00 0.00 0.00 62 1014.9
20260903173922 35 181 0.0 0.0 0.00 0.00 0.00 64 1015.2
20260903173421 35 184 0.0 0.0 0.00 0.00 0.00 63 1015.2
20260903172920 35 186 0.0 0.0 0.00 0.00 0.00 66 1015.2
20260903172419 35 188 0.0 0.0 0.00 0.00 0.00 62 1015.2
20260903171918 35 185 0.0 0.0 0.00 0.00 0.00 66 1015.2
20260903171416 35 169 0.0 0.0 0.00 0.00 0.00 64 1015.6
20260903170915 34 159 0.0 0.0 0.00 0.00 0.00 64 1015.6
20260903170414 33 173 0.0 0.0 0.00 0.00 0.00 67 1015.6
20260903165913 33 162 0.0 0.0 0.00 0.00 0.00 69 1015.6
20260903165410 33 154 0.0 0.0 0.00 0.00 0.00 65 1015.9
20260903164909 33 186 0.0 0.0 0.00 0.00 0.00 68 1015.9
20260903164408 33 186 0.0 0.0 0.00 0.00 0.00 69 1015.9
20260903163907 33 187 0.0 0.0 0.00 0.00 0.00 67 1015.9
20260903163406 33 163 0.0 0.0 0.00 0.00 0.00 67 1015.9
20260903162905 33 153 0.0 0.0 0.00 0.00 0.00 66 1015.9
20260903162404 33 179 0.0 0.0 0.00 0.00 0.00 68 1015.9
20260903161903 33 173 0.0 0.0 0.00 0.00 0.00 71 1016.3
20260903161402 32 184 0.0 0.0 0.00 0.00 0.00 71 1016.3
20260903160829 32 187 0.0 0.0 0.00 0.00 0.00 71 1016.3
20260903160328 32 160 0.0 0.0 0.00 0.00 0.00 71 1016.3
20260903155827 32 169 0.0 0.0 0.00 0.00 0.00 70 1016.3
20260903155326 31 159 0.0 0.0 0.00 0.00 0.00 72 1016.3
20260903154825 31 176 0.0 0.0 0.00 0.00 0.00 75 1016.3
20260903154324 31 155 0.0 0.0 0.00 0.00 0.00 75 1016.3
20260903153752 31 159 0.0 0.0 0.00 0.00 0.00 74 1016.3
20260903153251 31 160 0.0 0.0 0.00 0.00 0.00 74 1016.3
20260903152750 31 149 0.0 0.0 0.00 0.00 0.00 75 1016.3
20260903152249 31 143 0.0 0.0 0.00 0.00 0.00 73 1016.3
20260903151748 31 174 0.0 0.0 0.00 0.00 0.00 74 1016.3
20260903151247 31 155 0.0 0.0 0.00 0.00 0.00 74 1016.3
20260903150746 31 150 0.0 0.0 0.00 0.00 0.00 74 1016.3
20260903150214 31 160 0.0 0.0 0.00 0.00 0.00 76 1016.3
20260903145640 30 167 0.0 0.0 0.00 0.00 0.00 76 1016.3
20260903145036 30 159 0.0 0.0 0.00 0.00 0.00 78 1016.3
20260903144535 30 170 0.0 0.0 0.00 0.00 0.00 78 1016.3
20260903144034 29 153 0.0 0.0 0.00 0.00 0.00 79 1016.3
20260903143533 29 149 0.0 0.0 0.00 0.00 0.00 79 1016.3
20260903143032 29 149 0.0 0.0 0.00 0.00 0.00 78 1016.3
20260903142531 28 159 0.0 0.0 0.00 0.00 0.00 80 1016.3
20260903142029 28 142 0.0 0.0 0.00 0.00 0.00 79 1016.3
20260903141457 28 158 0.0 0.0 0.00 0.00 0.00 82 1016.3
20260903140956 28 152 0.0 0.0 0.00 0.00 0.00 81 1016.3
20260903140454 27 145 0.0 0.0 0.00 0.00 0.00 83 1016.6
20260903135920 27 142 0.0 0.0 0.00 0.00 0.00 83 1016.3
20260903135419 27 142 0.0 0.0 0.00 0.00 0.00 85 1016.3
20260903134846 27 142 0.0 0.0 0.00 0.00 0.00 87 1016.3
20260903134345 26 142 0.0 0.0 0.00 0.00 0.00 87 1016.6
20260903133844 26 137 0.0 0.0 0.00 0.00 0.00 89 1016.6
20260903133240 26 142 0.0 0.0 0.00 0.00 0.00 90 1016.6
20260903132739 25 142 0.0 0.0 0.00 0.00 0.00 92 1016.6
20260903132238 25 146 0.0 0.0 0.00 0.00 0.00 93 1016.6
20260903131736 25 145 0.0 0.0 0.00 0.00 0.00 96 1016.6
20260903131235 24 150 0.0 0.0 0.00 0.00 0.00 95 1016.6
20260903130734 23 149 0.0 0.0 0.00 0.00 0.00 95 1016.6
20260903130231 23 152 0.0 0.0 0.00 0.00 0.00 95 1016.6
20260903125730 23 152 0.0 0.0 0.00 0.00 0.00 95 1016.6
20260903125229 23 152 0.0 0.0 0.00 0.00 0.00 95 1016.6
20260903124624 23 152 0.0 0.0 0.00 0.00 0.00 95 1016.6
20260903124123 23 153 0.0 0.0 0.00 0.00 0.00 95 1016.6
20260903123621 22 152 0.0 0.0 0.00 0.00 0.00 95 1016.6
20260903123120 22 152 0.0 0.0 0.00 0.00 0.00 95 1016.6
20260903122619 22 152 0.0 0.0 0.00 0.00 0.00 95 1016.3
20260903122118 22 153 0.0 0.0 0.00 0.00 0.00 95 1016.6
20260903121615 22 152 0.0 0.0 0.00 0.00 0.00 95 1016.3
20260903121044 22 152 0.0 0.0 0.00 0.00 0.00 95 1016.3
20260903120542 22 153 0.0 0.0 0.00 0.00 0.00 95 1016.3
20260903120041 22 152 0.0 0.0 0.00 0.00 0.00 95 1016.3
20260903115509 22 152 0.0 0.0 0.00 0.00 0.00 95 1016.3
20260903115008 22 152 0.0 0.0 0.00 0.00 0.00 95 1016.3
20260903114405 22 152 0.0 0.0 0.00 0.00 0.00 95 1016.3
20260903113904 21 152 0.0 0.0 0.00 0.00 0.00 95 1016.3
20260903113403 21 152 0.0 0.0 0.00 0.00 0.00 95 1015.9
20260903112902 21 152 0.0 0.0 0.00 0.00 0.00 95 1015.9
20260903112227 21 153 0.0 0.0 0.00 0.00 0.00 95 1015.9
20260903111726 21 152 0.0 0.0 0.00 0.00 0.00 95 1015.9
20260903111225 21 153 0.0 0.0 0.00 0.00 0.00 95 1015.9
20260903110724 21 152 0.0 0.0 0.00 0.00 0.00 95 1015.9
20260903110223 21 152 0.0 0.0 0.00 0.00 0.00 95 1015.9
20260903105721 21 152 0.0 0.0 0.00 0.00 0.00 95 1015.9
20260903105220 21 153 0.0 0.0 0.00 0.00 0.00 95 1015.9
20260903104719 21 152 0.0 0.0 0.00 0.00 0.00 95 1015.6
20260903104218 21 152 0.0 0.0 0.00 0.00 0.00 95 1015.6
20260903103644 21 152 0.0 0.0 0.00 0.00 0.00 95 1015.6
20260903103143 21 152 0.0 0.0 0.00 0.00 0.00 95 1015.6
20260903102642 21 152 0.0 0.0 0.00 0.00 0.00 95 1015.6
20260903102141 22 152 0.0 0.0 0.00 0.00 0.00 95 1015.6
20260903101640 22 153 0.0 0.0 0.00 0.00 0.00 95 1015.2
20260903101138 22 152 0.0 0.0 0.00 0.00 0.00 95 1015.2
20260903100637 22 153 0.0 0.0 0.00 0.00 0.00 95 1015.2
20260903100136 22 153 0.0 0.0 0.00 0.00 0.00 95 1015.2
20260903095635 22 153 0.0 0.0 0.00 0.00 0.00 95 1015.2
20260903095134 22 153 0.0 0.0 0.00 0.00 0.00 95 1015.2
20260903094631 22 152 0.0 0.0 0.00 0.00 0.00 95 1015.2
20260903094130 22 152 0.0 0.0 0.00 0.00 0.00 95 1015.2
20260903093629 22 152 0.0 0.0 0.00 0.00 0.00 95 1015.2
20260903093024 22 152 0.0 0.0 0.00 0.00 0.00 95 1015.2
20260903092523 22 152 0.0 0.0 0.00 0.00 0.00 95 1015.2
20260903092021 22 152 0.0 0.0 0.00 0.00 0.00 95 1015.2
20260903091520 22 152 0.0 0.0 0.00 0.00 0.00 95 1015.2
20260903090946 22 152 0.0 0.0 0.00 0.00 0.00 95 1015.2
20260903090445 22 152 0.0 0.0 0.00 0.00 0.00 95 1015.2
20260903085944 22 152 0.0 0.0 0.00 0.00 0.00 95 1015.2
20260903085443 22 153 0.0 0.0 0.00 0.00 0.00 95 1015.6
20260903084942 22 152 0.0 0.0 0.00 0.00 0.00 95 1015.2
20260903084441 22 152 0.0 0.0 0.00 0.00 0.00 95 1015.2
20260903083939 22 153 0.0 0.0 0.00 0.00 0.00 95 1015.2
20260903083437 22 152 0.0 0.0 0.00 0.00 0.00 95 1015.2
20260903082905 22 152 0.0 0.0 0.00 0.00 0.00 95 1015.2
20260903082404 22 152 0.0 0.0 0.00 0.00 0.00 95 1015.2
20260903081903 22 152 0.0 0.0 0.00 0.00 0.00 95 1015.2
20260903081401 22 152 0.0 0.0 0.00 0.00 0.00 95 1015.2
20260903080900 22 152 0.0 0.0 0.00 0.00 0.00 95 1015.2
20260903080359 22 153 0.0 0.0 0.00 0.00 0.00 95 1015.2
20260903075858 22 153 0.0 0.0 0.00 0.00 0.00 95 1015.2
20260903075356 22 152 0.0 0.0 0.00 0.00 0.00 95 1015.2
20260903074855 22 152 0.0 0.0 0.00 0.00 0.00 95 1015.2
20260903074354 22 152 0.0 0.0 0.00 0.00 0.00 95 1015.2
20260903073853 22 152 0.0 0.0 0.00 0.00 0.00 95 1015.2
20260903073352 22 152 0.0 0.0 0.00 0.00 0.00 95 1015.2
20260903072851 22 152 0.0 0.0 0.00 0.00 0.00 95 1014.9
20260903072350 22 152 0.0 0.0 0.00 0.00 0.00 95 1014.9
20260903071849 22 152 0.0 0.0 0.00 0.00 0.00 95 1014.9
20260903071348 22 153 0.0 0.0 0.00 0.00 0.00 95 1014.9
20260903070816 22 152 0.0 0.0 0.00 0.00 0.00 95 1014.9
20260903070314 22 152 0.0 0.0 0.00 0.00 0.00 95 1014.9
20260903065811 22 153 0.0 0.0 0.00 0.00 0.00 95 1014.9
20260903065310 22 152 0.0 0.0 0.00 0.00 0.00 95 1014.9
20260903064809 22 153 0.0 0.0 0.00 0.00 0.00 95 1014.9
20260903064306 22 152 0.0 0.0 0.00 0.00 0.00 95 1014.9
20260903063804 22 152 0.0 0.0 0.00 0.00 0.00 95 1014.9
20260903063303 22 153 0.0 0.0 0.00 0.00 0.00 95 1015.2
20260903062802 22 148 0.0 0.0 0.00 0.00 0.00 95 1015.2
20260903062301 22 148 0.0 0.0 0.00 0.00 0.00 95 1015.2
20260903061759 22 148 0.0 0.0 0.00 0.00 0.00 95 1015.2
20260903061257 22 148 0.0 0.0 0.00 0.00 0.00 95 1015.2
20260903060756 22 148 0.0 0.0 0.00 0.00 0.00 95 1015.2
20260903060255 22 148 0.0 0.0 0.00 0.00 0.00 95 1015.2
20260903055650 22 148 0.0 0.0 0.00 0.00 0.00 95 1015.2
20260903055117 22 148 0.0 0.0 0.00 0.00 0.00 95 1015.2
20260903054616 22 148 0.0 0.0 0.00 0.00 0.00 95 1015.2
20260903054114 22 148 0.0 0.0 0.00 0.00 0.00 95 1015.2
20260903053614 22 148 0.0 0.0 0.00 0.00 0.00 95 1015.2
20260903053112 22 148 0.0 0.0 0.00 0.00 0.00 95 1015.2
20260903052611 22 148 0.0 0.0 0.00 0.00 0.00 95 1015.6
20260903052110 22 148 0.0 0.0 0.00 0.00 0.00 95 1015.6
20260903051608 22 148 0.0 0.0 0.00 0.00 0.00 95 1015.6
20260903051108 22 148 0.0 0.0 0.00 0.00 0.00 95 1015.6
20260903050605 22 148 0.0 0.0 0.00 0.00 0.00 95 1015.6
20260903050104 22 148 0.0 0.0 0.00 0.00 0.00 95 1015.6
20260903045604 22 148 0.0 0.0 0.00 0.00 0.00 95 1015.6
20260903045030 22 148 0.0 0.0 0.00 0.00 0.00 95 1015.6
20260903044530 22 148 0.0 0.0 0.00 0.00 0.00 95 1015.2
20260903044029 22 148 0.0 0.0 0.00 0.00 0.00 95 1015.6
20260903043528 22 148 0.0 0.0 0.00 0.00 0.00 95 1015.2
20260903043026 22 148 0.0 0.0 0.00 0.00 0.00 95 1015.2
20260903042453 22 148 0.0 0.0 0.00 0.00 0.00 94 1015.2
20260903041952 22 148 0.0 0.0 0.00 0.00 0.00 94 1015.6
20260903041450 22 148 0.0 0.0 0.00 0.00 0.00 94 1015.6
20260903040948 22 148 0.0 0.0 0.00 0.00 0.00 94 1015.6
20260903040447 22 148 0.0 0.0 0.00 0.00 0.00 94 1015.6
20260903035945 22 148 0.0 0.0 0.00 0.00 0.00 94 1015.2
20260903035444 22 148 0.0 0.0 0.00 0.00 0.00 93 1015.2
20260903034943 22 148 0.0 0.0 0.00 0.00 0.00 93 1015.2
20260903034442 23 148 0.0 0.0 0.00 0.00 0.00 93 1015.2
20260903033940 23 148 0.0 0.0 0.00 0.00 0.00 93 1015.2
20260903033438 23 148 0.0 0.0 0.00 0.00 0.00 93 1015.2
20260903032937 23 148 0.0 0.0 0.00 0.00 0.00 93 1015.2
20260903032436 23 148 0.0 0.0 0.00 0.00 0.00 93 1015.2
20260903031934 23 148 0.0 0.0 0.00 0.00 0.00 93 1015.2
20260903031433 23 148 0.0 0.0 0.00 0.00 0.00 93 1015.2
20260903030932 23 148 0.0 0.0 0.00 0.00 0.00 93 1015.2
20260903030429 23 148 0.0 0.0 0.00 0.00 0.00 93 1015.2
20260903025928 23 148 0.0 0.0 0.00 0.00 0.00 92 1015.2
20260903025427 23 148 0.0 0.0 0.00 0.00 0.00 92 1015.2
20260903024925 23 148 0.0 0.0 0.00 0.00 0.00 92 1015.2
20260903024425 23 148 0.0 0.0 0.00 0.00 0.00 91 1015.2
20260903023923 23 148 0.0 0.0 0.00 0.00 0.00 91 1015.2
20260903023422 23 148 0.0 0.0 0.00 0.00 0.00 91 1015.2
20260903022921 23 148 0.0 0.0 0.00 0.00 0.00 91 1015.2
20260903022349 23 148 0.0 0.0 0.00 0.00 0.00 91 1015.2
20260903021817 23 148 0.0 0.0 0.00 0.00 0.00 91 1015.2
20260903021316 23 148 0.0 0.0 0.00 0.00 0.00 91 1015.2
20260903020815 23 148 0.0 0.0 0.00 0.00 0.00 91 1015.2
20260903020314 23 148 0.0 0.0 0.00 0.00 0.00 91 1015.2
20260903015813 23 148 0.0 0.0 0.00 0.00 0.00 91 1015.2
20260903015312 23 148 0.0 0.0 0.00 0.00 0.00 91 1015.2
20260903014811 23 148 0.0 0.0 0.00 0.00 0.00 90 1014.9
20260903014310 24 148 0.0 0.0 0.00 0.00 0.00 90 1014.9
20260903013809 24 148 0.0 0.0 0.00 0.00 0.00 90 1014.9
20260903013307 24 146 0.0 0.0 0.00 0.00 0.00 90 1014.9
20260903012806 24 146 0.0 0.0 0.00 0.00 0.00 90 1014.9
20260903012234 24 146 0.0 0.0 0.00 0.00 0.00 89 1014.9
20260903011701 24 146 0.0 0.0 0.00 0.00 0.00 89 1014.9
20260903011200 24 147 0.0 0.0 0.00 0.00 0.00 89 1014.6
20260903010659 24 146 0.0 0.0 0.00 0.00 0.00 89 1014.6
20260903010158 24 146 0.0 0.0 0.00 0.00 0.00 88 1014.6
20260903005656 25 146 0.0 0.0 0.00 0.00 0.00 88 1014.6
20260903005154 25 147 0.0 0.0 0.00 0.00 0.00 87 1014.6
20260903004653 25 146 0.0 0.0 0.00 0.00 0.00 87 1014.6
20260903004152 25 146 0.0 0.0 0.00 0.00 0.00 87 1014.6